• MPC Preparation (Info)

  • MPEC 2022-F49 : 2022 FE1

    The following Minor Planet Electronic Circular may be linked-to from your own Web pages, but must not otherwise be redistributed electronically.

    A form allowing access to any MPEC is at the bottom of this page.


    Read MPEC 2022-F48 Read MPEC 2022-F50


    M.P.E.C. 2022-F49                                Issued 2022 March 25, 11:25 UT
    
         The Minor Planet Electronic Circulars contain information on unusual
             minor planets and routine data on comets.  They are published
        on behalf of Division F of the International Astronomical Union by the
              Minor Planet Center, Smithsonian Astrophysical Observatory,
                              Cambridge, MA 02138, U.S.A.
    
                 Prepared using the Tamkin Foundation Computer Network
    
                                  MPC@CFA.HARVARD.EDU
                URL https://www.minorplanetcenter.net/    ISSN 1523-6714
    
                                    2022 FE1                                 
    
    
    Observations:
         K22F01E  C2022 03 23.30996 12 27 52.57 +00 22 18.8          21.1 GVEF049G96
         K22F01E  C2022 03 23.31509 12 27 49.74 +00 21 00.9          21.1 GVEF049G96
         K22F01E  C2022 03 24.27457112 19 38.18 -03 50 48.0          21.08GVEF049G96
         K22F01E  C2022 03 24.28013312 19 34.96 -03 52 18.2          21.11GVEF049G96
         K22F01E  C2022 03 24.28570112 19 31.80 -03 53 46.3          20.94GVEF049G96
         K22F01E  C2022 03 24.29128612 19 28.63 -03 55 15.0          20.32GVEF049G96
         K22F01E*KC2022 03 24.36842912 18 44.50 -04 15 41.7          20.22GVEF049I52
         K22F01E KC2022 03 24.36990512 18 43.63 -04 16 05.1          19.94GVEF049I52
         K22F01E KC2022 03 24.37138212 18 42.80 -04 16 28.7          20.74GVEF049I52
         K22F01E 1C2022 03 25.00678 12 13 09.23 -07 06 03.2          20.9 VXEF049033
         K22F01E 1C2022 03 25.00772 12 13 08.66 -07 06 18.9          20.5 VXEF049033
         K22F01E 1C2022 03 25.00866 12 13 08.16 -07 06 33.5          20.7 VXEF049033
         K22F01E 1C2022 03 25.00996 12 13 07.41 -07 06 53.7          20.7 VXEF049033
         K22F01E KC2022 03 25.28069412 10 45.92 -08 18 33.2          20.58GVEF049I52
         K22F01E KC2022 03 25.28195312 10 45.22 -08 18 53.1          20.82GVEF049I52
         K22F01E KC2022 03 25.28321312 10 44.48 -08 19 13.1          20.87GVEF049I52
         K22F01E |C2022 03 25.34019 12 10 06.20 -08 31 51.2          19.5 VuEF049807
         K22F01E |C2022 03 25.34654 12 10 02.58 -08 33 33.3          20.1 VuEF049807
         K22F01E |C2022 03 25.35288 12 09 59.04 -08 35 14.5          19.9 VuEF049807
    
    Observer details:
    033 Karl Schwarzschild Observatory, Tautenburg.  Observers S. Melnikov, C.
        Hoegner, U. Laux, F. Ludwig, B. Stecklum.  Measurer B. Stecklum.  1.34-m
        f/3 Schmidt + CCD.
    807 Cerro Tololo Observatory, La Serena.  Observers T. Linder, R. Holmes, L.
        Horn.  0.61-m f/6.5 astrograph + CCD.
    G96 Mt. Lemmon Survey.  Observers A. Serrano, G. J. Leonard.  Measurers B.
        Gray, D. Rankin, F. C. Shelly, E. J. Christensen, G. A. Farneth, J. B.
        Fazekas, D. C. Fuls, A. R. Gibbs, A. D. Grauer, H. Groeller, J. K. Hogan,
        R. A. Kowalski, S. M. Larson, G. J. Leonard, R. L. Seaman, A. Serrano, K.
        W. Wierzchos.  1.5-m reflector + 10K CCD.
    I52 Steward Observatory, Mt. Lemmon Station.  Observer K. W. Wierzchos.
        Measurers E. J. Christensen, G. A. Farneth, J. B. Fazekas, D. C. Fuls, A.
        R. Gibbs, A. D. Grauer, H. Groeller, J. K. Hogan, R. A. Kowalski, S. M.
        Larson, G. J. Leonard, D. Rankin, R. L. Seaman, A. Serrano, F. C. Shelly,
        K. W. Wierzchos.
    
    Orbital elements:
    2022 FE1                                                 Earth MOID = 0.0622 AU
    Epoch 2022 Jan. 21.0 TT = JDT 2459600.5                 Veres                   
    M 308.28596              (2000.0)            P               Q                  
    n   0.73206286     Peri.  188.35722     -0.98018919     +0.19736953             
    a   1.2192810      Node     3.17272     -0.15997748     -0.73962064             
    e   0.1323786      Incl.   17.41633     -0.11677483     -0.64343343             
    P   1.35           H   26.30          G   0.15           U   7                  
    Residuals in seconds of arc
    220323 G96 (0.3-  1.9-)   220324 I52  0.3-  0.3+    220325 I52  0.2+  0.1+
    220323 G96  0.0   0.0     220324 I52  0.1-  0.1+    220325 I52  0.3+  0.2+
    220324 G96  0.3+  0.8+    220325 033  0.2+  0.0     220325 807 (0.2-  1.4+)
    220324 G96  0.3-  0.9-    220325 033  0.3-  0.5-    220325 807  0.4-  0.3+
    220324 G96  0.2-  0.4-    220325 033  0.1+  0.3-    220325 807  0.3+  0.3-
    220324 G96  0.2+  0.2-    220325 033  0.0   0.3+
    220324 I52  0.2+  0.2+    220325 I52  0.3-  0.1-
    
    Ephemeris:
    2022 FE1                 a,e,i = 1.22, 0.13, 17                  q = 1.0579
    Date    TT    R. A. (2000) Decl.     Delta      r    Elong.  Phase     V
    2022 02 23    14 25 22.1 +47 55 16   0.1775  1.0817   117.1    54.5    24.7
    ...
    2022 03 10    13 51 19.6 +37 00 10   0.1052  1.0667   132.4    43.4    23.2
    ...
    2022 03 18    13 08 18.9 +20 14 45   0.07413 1.0616   152.8    25.3    21.9
    ...
    2022 03 24    12 21 59.0 -02 36 40   0.06245 1.0591   176.9     2.9    20.7
    2022 03 25    12 13 14.6 -07 02 02   0.06205 1.0589   174.5     5.1    20.8
    2022 03 26    12 04 17.2 -11 27 46   0.06215 1.0586   169.9     9.5    21.0
    ...
    2022 04 01    11 08 33.8 -34 22 56   0.07223 1.0578   143.2    34.5    22.1
    ...
    2022 04 09    10 02 06.2 -50 29 17   0.1015  1.0587   122.0    53.3    23.4
    ...
    2022 04 24    08 50 52.2 -59 53 08   0.1688  1.0663   106.7    64.6    24.9
    
    M. P. C. Staff               (C) Copyright 2022 MPC           M.P.E.C. 2022-F49
    


    Read MPEC 2022-F48 Read MPEC 2022-F50


    MPEC number:

    Enter an MPEC number in one of the following forms:

    • 1997-B01 (the full form)
    • J97B01 (the packed version of the full form)
    • B01 (the abbreviated form)